| time (UTC) | temp C | wind direction | speed KPH | gust KPH | rain 1hr cm | rain 24hr cm | rain mn cm | humidity % | barometer mb |
| 20260906094502 | 30 | 88 | 0.0 | 0.0 | 0.00 | 0.00 | 0.00 | 69 | 1020.3 |
| 20260906093102 | 30 | 110 | 0.0 | 0.0 | 0.00 | 0.00 | 0.00 | 71 | 1020.3 |
| 20260906091554 | 29 | 123 | 0.0 | 1.6 | 0.00 | 0.00 | 0.00 | 71 | 1020.3 |
| 20260906090109 | 29 | 139 | 0.0 | 0.0 | 0.00 | 0.00 | 0.00 | 73 | 1020.3 |
| 20260906084556 | 29 | 35 | 0.0 | 0.0 | 0.00 | 0.00 | 0.00 | 73 | 1020.3 |
| 20260906083051 | 28 | 348 | 0.0 | 1.6 | 0.00 | 0.00 | 0.00 | 75 | 1020.3 |
| 20260906081552 | 28 | 22 | 0.0 | 0.0 | 0.00 | 0.00 | 0.00 | 76 | 1020.3 |
| 20260906080043 | 27 | 24 | 0.0 | 0.0 | 0.00 | 0.00 | 0.00 | 77 | 1020.2 |
| 20260906074539 | 27 | 26 | 0.0 | 0.0 | 0.00 | 0.00 | 0.00 | 77 | 1020.1 |
| 20260906073049 | 26 | 22 | 0.0 | 0.0 | 0.00 | 0.00 | 0.00 | 78 | 1019.9 |
| 20260906071533 | 26 | 5 | 0.0 | 0.0 | 0.00 | 0.00 | 0.00 | 79 | 1019.7 |
| 20260906070036 | 25 | 5 | 0.0 | 0.0 | 0.00 | 0.00 | 0.00 | 80 | 1019.8 |
| 20260906064532 | 25 | 337 | 0.0 | 0.0 | 0.00 | 0.00 | 0.00 | 80 | 1019.7 |
| 20260906063041 | 23 | 337 | 0.0 | 0.0 | 0.00 | 0.00 | 0.00 | 81 | 1019.6 |
| 20260906061525 | 23 | 336 | 0.0 | 0.0 | 0.00 | 0.00 | 0.00 | 81 | 1019.4 |
| 20260906060023 | 23 | 315 | 0.0 | 0.0 | 0.00 | 0.00 | 0.00 | 82 | 1019.3 |
| 20260906054521 | 23 | 300 | 0.0 | 0.0 | 0.00 | 0.00 | 0.00 | 83 | 1019.1 |
| 20260906053019 | 23 | 300 | 0.0 | 0.0 | 0.00 | 0.00 | 0.00 | 84 | 1019.1 |
| 20260906051534 | 23 | 297 | 0.0 | 0.0 | 0.00 | 0.00 | 0.00 | 86 | 1018.9 |
| 20260906050015 | 23 | 32 | 0.0 | 0.0 | 0.00 | 0.00 | 0.00 | 87 | 1018.8 |
| 20260906044513 | 23 | 32 | 0.0 | 0.0 | 0.00 | 0.00 | 0.00 | 88 | 1018.7 |
| 20260906043012 | 23 | 32 | 0.0 | 0.0 | 0.00 | 0.00 | 0.00 | 89 | 1018.5 |
| 20260906041510 | 23 | 32 | 0.0 | 0.0 | 0.00 | 0.00 | 0.00 | 91 | 1018.4 |
| 20260906040022 | 23 | 32 | 0.0 | 0.0 | 0.00 | 0.00 | 0.00 | 91 | 1018.3 |
| 20260906034507 | 23 | 32 | 0.0 | 0.0 | 0.00 | 0.00 | 0.00 | 92 | 1018.0 |
| 20260906033005 | 24 | 34 | 0.0 | 0.0 | 0.00 | 0.00 | 0.00 | 92 | 1017.9 |
| 20260906031502 | 24 | 34 | 0.0 | 0.0 | 0.00 | 0.00 | 0.00 | 92 | 1017.8 |
| 20260906030001 | 24 | 34 | 0.0 | 0.0 | 0.00 | 0.00 | 0.00 | 92 | 1017.7 |
| 20260906024501 | 25 | 34 | 0.0 | 0.0 | 0.00 | 0.00 | 0.00 | 91 | 1017.7 |
| 20260906023001 | 25 | 34 | 0.0 | 0.0 | 0.00 | 0.00 | 0.00 | 91 | 1017.7 |
| 20260906021606 | 25 | 35 | 0.0 | 0.0 | 0.00 | 0.00 | 0.00 | 90 | 1017.7 |
| 20260906020105 | 25 | 40 | 0.0 | 0.0 | 0.00 | 0.00 | 0.00 | 90 | 1017.6 |
| 20260906014557 | 24 | 55 | 0.0 | 0.0 | 0.00 | 0.00 | 0.00 | 89 | 1017.5 |
| 20260906013106 | 24 | 84 | 0.0 | 0.0 | 0.00 | 0.00 | 0.00 | 88 | 1017.4 |
| 20260906011555 | 24 | 92 | 0.0 | 0.0 | 0.00 | 0.00 | 0.00 | 87 | 1017.4 |
| 20260906010054 | 24 | 131 | 0.0 | 0.0 | 0.00 | 0.00 | 0.00 | 86 | 1017.3 |
| 20260906004554 | 24 | 131 | 0.0 | 0.0 | 0.00 | 0.00 | 0.00 | 85 | 1017.3 |
| 20260906003052 | 24 | 132 | 0.0 | 0.0 | 0.00 | 0.00 | 0.00 | 85 | 1017.2 |
| 20260906001550 | 25 | 132 | 0.0 | 0.0 | 0.00 | 0.00 | 0.00 | 85 | 1017.2 |
| 20260906000042 | 25 | 133 | 0.0 | 0.0 | 0.00 | 0.00 | 0.00 | 84 | 1017.3 |
| 20260905234537 | 25 | 133 | 0.0 | 0.0 | 0.00 | 0.00 | 0.00 | 84 | 1017.1 |
| 20260905233042 | 25 | 133 | 0.0 | 0.0 | 0.00 | 0.00 | 0.00 | 84 | 1017.1 |
| 20260905231533 | 25 | 133 | 0.0 | 0.0 | 0.00 | 0.00 | 0.00 | 83 | 1017.0 |
| 20260905230034 | 25 | 133 | 0.0 | 0.0 | 0.00 | 0.00 | 0.00 | 83 | 1016.9 |
| 20260905224530 | 26 | 133 | 0.0 | 0.0 | 0.00 | 0.00 | 0.00 | 82 | 1016.8 |
| 20260905223028 | 26 | 133 | 0.0 | 0.0 | 0.00 | 0.00 | 0.00 | 82 | 1016.7 |
| 20260905221526 | 26 | 133 | 0.0 | 0.0 | 0.00 | 0.00 | 0.00 | 82 | 1016.7 |
| 20260905220024 | 26 | 133 | 0.0 | 0.0 | 0.00 | 0.00 | 0.00 | 81 | 1016.6 |
| 20260905214526 | 26 | 133 | 0.0 | 0.0 | 0.00 | 0.00 | 0.00 | 81 | 1016.5 |
| 20260905213022 | 26 | 133 | 0.0 | 0.0 | 0.00 | 0.00 | 0.00 | 81 | 1016.4 |
| 20260905211520 | 26 | 133 | 0.0 | 0.0 | 0.00 | 0.00 | 0.00 | 80 | 1016.3 |
| 20260905210034 | 26 | 128 | 0.0 | 0.0 | 0.00 | 0.00 | 0.00 | 80 | 1016.2 |
| 20260905204518 | 26 | 143 | 0.0 | 0.0 | 0.00 | 0.00 | 0.00 | 80 | 1016.2 |
| 20260905203017 | 26 | 146 | 0.0 | 0.0 | 0.00 | 0.00 | 0.00 | 80 | 1016.1 |
| 20260905201516 | 27 | 140 | 0.0 | 0.0 | 0.00 | 0.00 | 0.00 | 80 | 1016.0 |
| 20260905200022 | 27 | 152 | 0.0 | 0.0 | 0.00 | 0.00 | 0.00 | 79 | 1016.0 |
| 20260905194514 | 27 | 148 | 0.0 | 0.0 | 0.00 | 0.00 | 0.00 | 78 | 1015.9 |
| 20260905193012 | 27 | 161 | 0.0 | 0.0 | 0.00 | 0.00 | 0.00 | 77 | 1015.7 |
| 20260905191510 | 28 | 156 | 0.0 | 0.0 | 0.00 | 0.00 | 0.00 | 75 | 1015.5 |
| 20260905190010 | 28 | 129 | 0.0 | 1.6 | 0.00 | 0.00 | 0.00 | 74 | 1015.3 |
| 20260905184512 | 28 | 141 | 0.0 | 0.0 | 0.00 | 0.00 | 0.00 | 72 | 1015.1 |
| 20260905183009 | 29 | 125 | 0.0 | 1.6 | 0.00 | 0.00 | 0.00 | 70 | 1015.0 |
| 20260905181507 | 30 | 112 | 0.0 | 0.0 | 0.00 | 0.00 | 0.00 | 66 | 1014.7 |
| 20260905180007 | 31 | 288 | 0.0 | 0.0 | 0.00 | 0.00 | 0.00 | 51 | 1014.4 |
| 20260905174517 | 32 | 288 | 0.0 | 0.0 | 0.00 | 0.00 | 0.00 | 49 | 1014.3 |
| 20260905173006 | 33 | 288 | 0.0 | 0.0 | 0.00 | 0.00 | 0.00 | 48 | 1014.1 |
| 20260905171505 | 33 | 288 | 0.0 | 0.0 | 0.00 | 0.00 | 0.00 | 46 | 1014.0 |
| 20260905170005 | 34 | 288 | 0.0 | 0.0 | 0.00 | 0.00 | 0.00 | 43 | 1014.0 |
| 20260905164504 | 34 | 288 | 0.0 | 0.0 | 0.00 | 0.00 | 0.00 | 42 | 1013.8 |
| 20260905163003 | 35 | 288 | 0.0 | 0.0 | 0.00 | 0.00 | 0.00 | 42 | 1013.8 |
| 20260905161504 | 35 | 318 | 0.0 | 0.0 | 0.00 | 0.00 | 0.00 | 41 | 1013.7 |
| 20260905160002 | 35 | 284 | 0.0 | 0.0 | 0.00 | 0.00 | 0.00 | 42 | 1013.7 |
| 20260905154502 | 35 | 341 | 0.0 | 1.6 | 0.00 | 0.00 | 0.00 | 42 | 1013.6 |
| 20260905153001 | 35 | 287 | 0.0 | 1.6 | 0.00 | 0.00 | 0.00 | 42 | 1013.4 |
| 20260905151600 | 35 | 300 | 0.0 | 3.2 | 0.00 | 0.00 | 0.00 | 43 | 1013.5 |
| 20260905150107 | 35 | 265 | 0.0 | 0.0 | 0.00 | 0.00 | 0.00 | 42 | 1013.5 |
| 20260905144602 | 35 | 286 | 0.0 | 1.6 | 0.00 | 0.00 | 0.00 | 41 | 1013.6 |
| 20260905143104 | 35 | 292 | 0.0 | 0.0 | 0.00 | 0.00 | 0.00 | 43 | 1013.7 |
| 20260905141554 | 35 | 283 | 0.0 | 1.6 | 0.00 | 0.00 | 0.00 | 43 | 1013.8 |
| 20260905140055 | 35 | 287 | 0.0 | 1.6 | 0.00 | 0.00 | 0.00 | 45 | 1013.9 |
| 20260905134555 | 34 | 144 | 0.0 | 1.6 | 0.00 | 0.00 | 0.00 | 44 | 1013.9 |
| 20260905133050 | 34 | 284 | 0.0 | 3.2 | 0.00 | 0.00 | 0.00 | 45 | 1014.2 |
| 20260905131545 | 34 | 321 | 0.0 | 0.0 | 0.00 | 0.00 | 0.00 | 47 | 1014.2 |
| 20260905130048 | 33 | 282 | 0.0 | 3.2 | 0.00 | 0.00 | 0.00 | 46 | 1014.5 |
| 20260905124541 | 33 | 280 | 0.0 | 0.0 | 0.00 | 0.00 | 0.00 | 47 | 1014.6 |
| 20260905123040 | 33 | 335 | 0.0 | 3.2 | 0.00 | 0.00 | 0.00 | 48 | 1014.7 |
| 20260905121538 | 33 | 282 | 0.0 | 4.8 | 0.00 | 0.00 | 0.00 | 48 | 1014.7 |
| 20260905120036 | 32 | 281 | 0.0 | 3.2 | 0.00 | 0.00 | 0.00 | 49 | 1014.9 |
| 20260905114528 | 32 | 329 | 0.0 | 1.6 | 0.00 | 0.00 | 0.00 | 50 | 1015.2 |
| 20260905113126 | 32 | 290 | 0.0 | 4.8 | 0.00 | 0.00 | 0.00 | 49 | 1015.3 |
| 20260905111523 | 32 | 282 | 0.0 | 3.2 | 0.00 | 0.00 | 0.00 | 49 | 1015.1 |
| 20260905110022 | 32 | 327 | 0.0 | 1.6 | 0.00 | 0.00 | 0.00 | 51 | 1015.1 |
| 20260905104521 | 31 | 292 | 0.0 | 1.6 | 0.00 | 0.00 | 0.00 | 51 | 1015.2 |
| 20260905103020 | 31 | 267 | 0.0 | 1.6 | 0.00 | 0.00 | 0.00 | 54 | 1015.2 |
| 20260905101514 | 31 | 299 | 0.0 | 1.6 | 0.00 | 0.00 | 0.00 | 54 | 1015.3 |
| 20260905100011 | 31 | 313 | 0.0 | 1.6 | 0.00 | 0.00 | 0.00 | 54 | 1015.4 |